TimeCDT,TemperatureF,Dew PointF,Humidity,Sea Level PressureIn,VisibilityMPH,Wind Direction,Wind SpeedMPH,Gust SpeedMPH,PrecipitationIn,Events,Conditions,WindDirDegrees,DateUTC
12:53 AM,50.0,44.1,80,30.08,10.0,NE,9.2,-,N/A,,Clear,50,2012-03-25 05:53:00
1:53 AM,48.0,43.0,83,30.08,9.0,NE,4.6,-,N/A,,Clear,50,2012-03-25 06:53:00
2:53 AM,44.1,41.0,89,30.07,8.0,NNE,4.6,-,N/A,,Clear,20,2012-03-25 07:53:00
3:53 AM,42.1,39.9,92,30.07,7.0,North,4.6,-,N/A,,Clear,360,2012-03-25 08:53:00
4:53 AM,41.0,39.0,93,30.06,7.0,North,4.6,-,N/A,,Clear,10,2012-03-25 09:53:00
5:53 AM,41.0,39.0,93,30.06,6.0,NNE,4.6,-,N/A,,Clear,20,2012-03-25 10:53:00
6:53 AM,39.9,39.0,97,30.06,5.0,NE,5.8,-,N/A,,Clear,40,2012-03-25 11:53:00
7:53 AM,39.0,37.9,96,30.08,3.0,East,4.6,-,N/A,,Clear,80,2012-03-25 12:53:00
8:53 AM,43.0,41.0,93,30.08,3.0,East,6.9,-,N/A,,Clear,80,2012-03-25 13:53:00
9:53 AM,50.0,45.0,83,30.07,5.0,East,9.2,-,N/A,,Haze,80,2012-03-25 14:53:00
10:53 AM,57.9,50.0,75,30.06,7.0,ESE,9.2,-,N/A,,Unknown,120,2012-03-25 15:53:00
11:53 AM,66.0,53.1,63,30.04,10.0,SSE,10.4,-,N/A,,Scattered Clouds,150,2012-03-25 16:53:00
12:22 PM,66.2,53.6,64,30.05,10.0,SE,9.2,-,N/A,,Overcast,140,2012-03-25 17:22:00
12:53 PM,66.0,54.0,65,30.01,10.0,SSE,12.7,-,N/A,,Overcast,150,2012-03-25 17:53:00
1:30 PM,66.2,55.4,68,30.02,10.0,SE,12.7,-,N/A,,Overcast,130,2012-03-25 18:30:00
1:53 PM,69.1,55.0,61,29.98,10.0,SSE,10.4,-,N/A,,Overcast,160,2012-03-25 18:53:00
2:53 PM,73.0,55.9,55,29.95,10.0,SSE,11.5,23.0,N/A,,Overcast,160,2012-03-25 19:53:00
3:53 PM,75.9,55.9,50,29.93,10.0,South,16.1,25.3,N/A,,Mostly Cloudy,190,2012-03-25 20:53:00
4:53 PM,75.0,55.9,51,29.91,10.0,South,12.7,-,N/A,,Scattered Clouds,190,2012-03-25 21:53:00
5:53 PM,75.9,55.9,50,29.89,10.0,South,12.7,-,N/A,,Scattered Clouds,190,2012-03-25 22:53:00
6:53 PM,70.0,55.9,61,29.90,10.0,WNW,8.1,-,N/A,,Partly Cloudy,300,2012-03-25 23:53:00
7:53 PM,66.0,55.0,68,29.91,10.0,WNW,4.6,-,N/A,,Clear,290,2012-03-26 00:53:00
8:53 PM,66.0,55.0,68,29.91,10.0,Calm,Calm,-,N/A,,Unknown,0,2012-03-26 01:53:00
9:53 PM,59.0,54.0,83,29.93,9.0,East,4.6,-,N/A,,Clear,90,2012-03-26 02:53:00
10:53 PM,63.0,55.9,78,29.91,10.0,ESE,9.2,-,N/A,,Clear,110,2012-03-26 03:53:00
11:53 PM,60.1,55.0,83,29.89,10.0,ESE,10.4,-,N/A,,Clear,110,2012-03-26 04:53:00